Location: Kimberly
(42.5380°N, 114.3640°W)
Time: 02:32:55
(UTC-06:00)

Amateur Radio Satellites - All Passes

Search period start: 23 June 2017 02:02
Search period end: 24 June 2017 02:02
Location: Kimberly, 42.5380°N, 114.3640°W

Satellite Date Start Highest point End Downlink Frequencies (MHz)
Time Altitude Azimuth
Gurwin Techsat 1B 23 Jun 02:04:06 02:04:42 10° 87° (E) 02:05:19 435.225
DX 1 23 Jun 02:26:57 02:31:03 43° 261° (W) 02:35:12 434.975-435.025
EO-79 23 Jun 02:28:36 02:32:09 26° 292° (WNW) 02:35:41 145.935-145.965
BUGSAT 1 23 Jun 02:32:15 02:36:32 89° 109° (ESE) 02:40:45 437.445
DUCHIFAT 1 23 Jun 02:46:30 02:49:42 21° 294° (WNW) 02:52:52 145.980
UKube-1 23 Jun 02:50:25 02:54:21 35° 262° (W) 02:58:19 .
NANOSAT C BR1 23 Jun 02:53:48 02:56:28 16° 296° (WNW) 02:59:08 145.865
ITUPSAT 1 23 Jun 02:57:10 03:01:09 27° 66° (ENE) 03:05:08 437.325
MOZHAYETS 4 23 Jun 03:06:34 03:09:56 20° 65° (ENE) 03:13:19
BEESAT 23 Jun 03:08:47 03:13:05 34° 68° (ENE) 03:17:24 436.000
Oscar 19 23 Jun 03:10:09 03:15:17 73° 103° (ESE) 03:20:23 437.125/150
NO-84 23 Jun 03:14:46 03:17:25 16° 359° (N) 03:20:05 435.350 FM
AO-7 23 Jun 03:30:59 03:34:59 14° 87° (E) 03:38:58 .
RS-15 23 Jun 03:34:24 03:44:04 25° 4° (N) 03:53:34 29.354- 29.394
Gurwin Techsat 1B 23 Jun 03:40:03 03:45:24 85° 104° (ESE) 03:50:43 435.225
ITAMSAT 1 23 Jun 03:43:50 03:45:33 11° 88° (E) 03:47:16 435.822/435.867
ITUPSAT 1 23 Jun 04:34:26 04:38:49 35° 263° (W) 04:43:14 437.325
MOZHAYETS 4 23 Jun 04:42:20 04:46:46 44° 261° (W) 04:51:13
BEESAT 23 Jun 04:46:53 04:50:53 26° 265° (W) 04:54:55 436.000
Oscar 19 23 Jun 04:51:04 04:53:59 15° 300° (WNW) 04:56:53 437.125/150
NO-84 23 Jun 04:52:50 04:56:18 22° 20° (NNE) 04:59:45 435.350 FM
KKS-1 23 Jun 05:00:17 05:04:21 38° 70° (ENE) 05:08:28 437.445
CUBESAT XI-V 23 Jun 05:15:19 05:19:58 77° 75° (ENE) 05:24:36 437.345
ITAMSAT 1 23 Jun 05:20:24 05:25:40 87° 285° (WNW) 05:30:54 435.822/435.867
AO-7 23 Jun 05:20:40 05:29:05 74° 106° (ESE) 05:37:26 .
Gurwin Techsat 1B 23 Jun 05:21:55 05:24:37 14° 302° (WNW) 05:27:19 435.225
STARS 23 Jun 05:38:02 05:42:07 41° 70° (ENE) 05:46:15 437.465
RS-15 23 Jun 05:49:30 06:01:03 43° 38° (NE) 06:12:03 29.354- 29.394
AO-85 23 Jun 05:50:29 05:53:35 21° 44° (NE) 05:56:48 145.980
BEESAT 3 23 Jun 05:55:49 05:57:56 14° 39° (NE) 06:00:03 437.485
DOVE 4 23 Jun 06:08:49 06:11:51 16° 91° (E) 06:14:58 437.250
NO-84 23 Jun 06:30:07 06:34:31 77° 39° (NE) 06:38:45 435.350 FM
KKS-1 23 Jun 06:37:45 06:41:02 20° 266° (W) 06:44:21 437.445
LilacSat-2 23 Jun 06:40:33 06:42:00 12° 90° (E) 06:43:26 437.200
XW-2B 23 Jun 06:44:32 06:46:07 12° 91° (E) 06:47:43 145.730 - 145.750
BEESAT 2 23 Jun 06:47:54 06:50:34 17° 41° (NE) 06:53:12 435.950
CUBESAT XI-V 23 Jun 06:56:42 06:57:52 11° 272° (W) 06:59:02 437.345
XW-2C 23 Jun 06:58:54 07:01:37 19° 93° (E) 07:04:19 145.795 - 145.815
ITAMSAT 1 23 Jun 07:02:10 07:04:19 13° 303° (WNW) 07:06:29 435.822/435.867
AO-7 23 Jun 07:14:23 07:21:06 28° 306° (NW) 07:27:49 .
STARS 23 Jun 07:15:33 07:18:38 19° 267° (W) 07:21:44 437.465
KAITUO 1B 23 Jun 07:19:43 07:22:50 25° 95° (E) 07:25:55 145.475/437.950
AO-85 23 Jun 07:30:11 07:34:10 47° 241° (WSW) 07:38:22 145.980
BEESAT 3 23 Jun 07:32:03 07:36:04 82° 238° (WSW) 07:40:01 437.485
CUTE-I 23 Jun 07:43:16 07:48:32 52° 100° (E) 07:53:46 437.470
DOVE 4 23 Jun 07:45:04 07:49:49 59° 286° (WNW) 07:54:48 437.250
STRAND 1 23 Jun 07:57:19 08:02:23 66° 73° (ENE) 08:07:30 437.568
NUDT-PHONESAT 23 Jun 07:59:01 08:02:45 80° 103° (ESE) 08:06:25 437.300
RS-15 23 Jun 08:02:24 08:14:26 71° 244° (WSW) 08:25:49 29.354- 29.394
YUBILEINY 23 Jun 08:05:44 08:08:36 12° 53° (NE) 08:11:27 435.215
XW-2F 23 Jun 08:05:54 08:09:39 65° 284° (WNW) 08:13:20 145.980 - 146.000
CUTE 1.7 + AOD 2 23 Jun 08:06:52 08:09:50 19° 93° (E) 08:12:48 437.475
XW-2D 23 Jun 08:07:58 08:11:40 56° 286° (WNW) 08:15:20 145.860 - 145.880
NO-84 23 Jun 08:08:53 08:11:36 16° 237° (WSW) 08:14:15 435.350 FM
LilacSat-2 23 Jun 08:12:53 08:16:33 47° 287° (WNW) 08:20:10 437.200
XW-2B 23 Jun 08:16:57 08:20:34 45° 287° (WNW) 08:24:09 145.730 - 145.750
HO-68 23 Jun 08:20:12 08:26:39 35° 96° (E) 08:33:03 435.675
BEESAT 2 23 Jun 08:24:42 08:28:44 64° 240° (WSW) 08:32:42 435.950
UWE-3 23 Jun 08:30:48 08:32:03 11° 87° (E) 08:33:18 435.000/436.395/437.385
XW-2C 23 Jun 08:32:32 08:35:51 29° 290° (WNW) 08:39:08 145.795 - 145.815
FO-29 23 Jun 08:33:50 08:35:13 11° 48° (NE) 08:36:37 435.910
O/OREOS (USA 219) 23 Jun 08:37:34 08:42:00 58° 65° (ENE) 08:46:23 437.305
KAITUO 1B 23 Jun 08:53:51 08:56:43 21° 292° (WNW) 08:59:34 145.475/437.950
AAUSAT CUBESAT 2 23 Jun 08:53:59 08:56:49 18° 93° (E) 08:59:38 437.432
CUTE-I 23 Jun 09:24:07 09:28:12 22° 297° (WNW) 09:32:16 437.470
CUBEBUG 2 23 Jun 09:25:00 09:29:45 71° 101° (ESE) 09:34:22 437.445
SEEDS 23 Jun 09:29:21 09:33:32 81° 281° (WNW) 09:37:40 437.485
XW-2A 23 Jun 09:31:09 09:34:30 52° 285° (WNW) 09:37:48 145.665 - 145.685
AO-73 23 Jun 09:32:30 09:36:13 25° 94° (E) 09:39:49 145.935
STRAND 1 23 Jun 09:39:02 09:42:00 15° 270° (W) 09:45:01 437.568
CUTE 1.7 + AOD 2 23 Jun 09:41:55 09:45:48 37° 289° (WNW) 09:49:40 437.475
M-CUBED/EXP-1 PRIME 23 Jun 09:47:51 09:51:08 60° 70° (ENE) 09:54:21 437.505
PRISM 23 Jun 09:49:29 09:52:34 21° 66° (ENE) 09:55:39 437.425
UNISAT 6 23 Jun 09:50:16 09:53:54 24° 66° (ENE) 09:57:36 437.425
YUBILEINY 23 Jun 09:58:58 10:07:41 58° 77° (ENE) 10:16:18 435.215
ISS 23 Jun 09:59:40 10:02:27 26° 136° (SE) 10:05:16 437.550
Oscar 11 23 Jun 10:02:34 10:06:39 40° 98° (E) 10:10:41 .
UWE-3 23 Jun 10:04:26 10:09:04 75° 284° (WNW) 10:13:32 435.000/436.395/437.385
ZACube-1 23 Jun 10:05:23 10:09:53 64° 101° (E) 10:14:13 437.345
HO-68 23 Jun 10:07:42 10:14:30 47° 295° (WNW) 10:21:16 435.675
Tancredo 1 23 Jun 10:11:06 10:14:06 69° 143° (SE) 10:17:07 437.200
FO-29 23 Jun 10:12:47 10:18:36 58° 70° (ENE) 10:25:14 435.910
RS-15 23 Jun 10:18:19 10:24:24 16° 265° (W) 10:30:22 29.354- 29.394
O/OREOS (USA 219) 23 Jun 10:18:39 10:20:52 14° 262° (W) 10:23:04 437.305
AAUSAT CUBESAT 2 23 Jun 10:28:37 10:32:24 37° 289° (WNW) 10:36:10 437.432
DELFI C3 23 Jun 10:43:53 10:47:20 29° 96° (E) 10:50:46 145.870
TIGRISAT 23 Jun 10:44:20 10:48:53 76° 76° (ENE) 10:53:33 435.000
EO-88 23 Jun 10:47:27 10:50:12 20° 94° (E) 10:52:55 145.990 - 145.960
CUBEBUG 2 23 Jun 11:03:19 11:05:44 14° 299° (WNW) 11:08:07 437.445
AO-73 23 Jun 11:08:30 11:12:26 31° 291° (WNW) 11:16:16 145.935
POLYITAN 1 23 Jun 11:12:27 11:13:29 11° 60° (ENE) 11:14:30 437.675
QB50P2 23 Jun 11:21:37 11:24:00 15° 63° (ENE) 11:26:24 145.880/145.840
PRISM 23 Jun 11:24:02 11:27:39 31° 263° (W) 11:31:18 437.425
UNISAT 6 23 Jun 11:26:09 11:30:22 37° 263° (W) 11:34:42 437.425
AIST 2D 23 Jun 11:34:55 11:38:04 31° 71° (ENE) 11:41:14 435.315
ISS 23 Jun 11:35:41 11:38:50 41° 333° (NNW) 11:41:59 437.550
Oscar 11 23 Jun 11:39:26 11:42:29 19° 295° (WNW) 11:45:33 .
ZACube-1 23 Jun 11:43:18 11:45:35 14° 298° (WNW) 11:47:50 437.345
EO-79 23 Jun 11:45:51 11:49:15 24° 67° (ENE) 11:52:41 145.935-145.965
Tancredo 1 23 Jun 11:47:28 11:49:57 22° 342° (NNW) 11:52:26 437.200
YUBILEINY 23 Jun 11:56:31 12:03:57 32° 277° (W) 12:11:21 435.215
ESTCUBE 1 23 Jun 11:59:22 12:01:34 13° 90° (E) 12:03:46 437.505/2401.250
FO-29 23 Jun 11:59:34 12:04:13 23° 271° (W) 12:09:20 435.910
DUCHIFAT 1 23 Jun 12:02:38 12:06:16 29° 69° (ENE) 12:09:56 145.980
PCSat 23 Jun 12:09:23 12:11:09 12° 102° (ESE) 12:12:55 145.827
NANOSAT C BR1 23 Jun 12:09:26 12:13:20 38° 71° (ENE) 12:17:17 145.865
DELFI C3 23 Jun 12:18:56 12:21:57 22° 292° (WNW) 12:24:58 145.870
EO-88 23 Jun 12:20:47 12:23:52 26° 290° (WNW) 12:26:54 145.990 - 145.960
TIGRISAT 23 Jun 12:24:49 12:26:07 11° 272° (W) 12:27:26 435.000
POLYITAN 1 23 Jun 12:44:21 12:48:36 79° 257° (WSW) 12:52:54 437.675
Oscar 19 23 Jun 12:51:03 12:54:02 16° 60° (ENE) 12:57:00 437.125/150
LO-87 23 Jun 12:51:08 12:54:47 87° 289° (WNW) 12:58:25 145.935 - 145.965
SPROUT 23 Jun 12:52:15 12:54:03 12° 90° (E) 12:55:52 437.525
QB50P2 23 Jun 12:55:10 12:59:19 54° 260° (W) 13:03:32 145.880/145.840
AIST 2D 23 Jun 13:09:07 13:11:21 16° 267° (W) 13:13:35 435.315
ISS 23 Jun 13:13:38 13:15:57 18° 353° (N) 13:18:17 437.550
EO-79 23 Jun 13:21:06 13:24:51 31° 263° (W) 13:28:40 145.935-145.965
BUGSAT 1 23 Jun 13:22:05 13:26:09 65° 74° (ENE) 13:30:18 437.445
Gurwin Techsat 1B 23 Jun 13:23:54 13:27:41 20° 62° (ENE) 13:31:28 435.225
Tancredo 1 23 Jun 13:24:30 13:26:21 15° 2° (N) 13:28:11 437.200
ESTCUBE 1 23 Jun 13:34:20 13:38:45 59° 287° (WNW) 13:43:09 437.505/2401.250
DUCHIFAT 1 23 Jun 13:38:26 13:41:54 25° 265° (W) 13:45:26 145.980
NANOSAT C BR1 23 Jun 13:46:10 13:49:11 19° 267° (W) 13:52:13 145.865
VELOX 1 23 Jun 13:46:35 13:50:50 44° 99° (E) 13:55:03 145.980
PCSat 23 Jun 13:48:15 13:53:40 87° 119° (ESE) 13:59:09 145.827
DX 1 23 Jun 14:14:21 14:18:09 28° 96° (E) 14:21:56 434.975-435.025
SPROUT 23 Jun 14:26:05 14:30:20 60° 286° (WNW) 14:34:34 437.525
Oscar 19 23 Jun 14:27:35 14:32:44 73° 257° (WSW) 14:37:54 437.125/150
AO-7 23 Jun 14:30:07 14:36:32 26° 53° (NE) 14:42:58 .
50 SAT 23 Jun 14:31:45 14:35:09 73° 102° (ESE) 14:38:32 437.505
SO-50 23 Jun 14:33:07 14:34:06 11° 107° (ESE) 14:35:05 436.795
UKube-1 23 Jun 14:36:22 14:40:17 33° 97° (E) 14:44:11 .
ISS 23 Jun 14:50:45 14:53:18 20° 13° (NNE) 14:55:52 437.550
Tancredo 1 23 Jun 15:00:00 15:02:41 27° 22° (NNE) 15:05:21 437.200
BUGSAT 1 23 Jun 15:01:07 15:01:57 10° 271° (W) 15:02:47 437.445
ITAMSAT 1 23 Jun 15:01:22 15:05:11 21° 62° (ENE) 15:09:02 435.822/435.867
Gurwin Techsat 1B 23 Jun 15:01:58 15:07:10 58° 259° (W) 15:12:26 435.225
VELOX 1 23 Jun 15:23:52 15:26:57 19° 296° (WNW) 15:30:02 145.980
PCSat 23 Jun 15:34:07 15:37:48 18° 319° (NW) 15:41:31 145.827
DX 1 23 Jun 15:50:34 15:54:14 27° 293° (WNW) 15:57:54 434.975-435.025
SO-50 23 Jun 16:09:18 16:13:52 86° 302° (WNW) 16:18:25 436.795
UKube-1 23 Jun 16:12:44 16:16:08 23° 294° (WNW) 16:19:32 .
AO-7 23 Jun 16:20:06 16:28:25 81° 252° (WSW) 16:36:49 .
ISS 23 Jun 16:26:56 16:30:14 71° 33° (NNE) 16:33:31 437.550
ITUPSAT 1 23 Jun 16:33:37 16:38:20 55° 101° (E) 16:43:01 437.325
Tancredo 1 23 Jun 16:35:28 16:38:24 44° 219° (SW) 16:41:17 437.200
MOZHAYETS 4 23 Jun 16:36:29 16:40:48 39° 98° (E) 16:45:04
ITAMSAT 1 23 Jun 16:39:11 16:44:15 53° 260° (W) 16:49:22 435.822/435.867
BEESAT 23 Jun 16:45:09 16:49:57 74° 102° (ESE) 16:54:42 436.000
CUBESAT XI-V 23 Jun 17:12:08 17:15:13 18° 92° (E) 17:18:19 437.345
DOVE 4 23 Jun 17:16:07 17:18:24 15° 63° (ENE) 17:20:43 437.250
CUTE-I 23 Jun 17:29:22 17:31:47 13° 57° (ENE) 17:34:14 437.470
XW-2C 23 Jun 17:42:18 17:43:36 11° 63° (ENE) 17:44:55 145.795 - 145.815
SO-50 23 Jun 17:52:25 17:55:01 15° 323° (NW) 17:57:35 436.795
KAITUO 1B 23 Jun 18:01:15 18:03:21 15° 65° (ENE) 18:05:28 145.475/437.950
ISS 23 Jun 18:04:29 18:06:20 14° 229° (SW) 18:08:12 437.550
ITUPSAT 1 23 Jun 18:12:32 18:15:43 18° 298° (WNW) 18:18:54 437.325
MOZHAYETS 4 23 Jun 18:14:12 18:17:42 22° 295° (WNW) 18:21:11
AO-7 23 Jun 18:17:44 18:22:23 16° 271° (W) 18:27:05 .
BEESAT 23 Jun 18:24:42 18:27:06 14° 300° (WNW) 18:29:30 436.000
KKS-1 23 Jun 18:26:21 18:30:50 71° 102° (ESE) 18:35:18 437.445
NUDT-PHONESAT 23 Jun 18:38:37 18:42:05 37° 72° (ENE) 18:45:35 437.300
XW-2F 23 Jun 18:46:49 18:50:35 61° 75° (ENE) 18:54:22 145.980 - 146.000
CUBESAT XI-V 23 Jun 18:48:26 18:52:50 46° 288° (WNW) 18:57:13 437.345
XW-2D 23 Jun 18:49:09 18:52:59 71° 76° (ENE) 18:56:49 145.860 - 145.880
HO-68 23 Jun 18:50:02 18:55:59 29° 59° (ENE) 19:01:56 435.675
DOVE 4 23 Jun 18:51:38 18:55:39 50° 261° (W) 18:59:48 437.250
LilacSat-2 23 Jun 18:54:39 18:58:31 86° 76° (ENE) 19:02:23 437.200
XW-2B 23 Jun 18:58:04 19:01:55 88° 76° (ENE) 19:05:46 145.730 - 145.750
CUTE 1.7 + AOD 2 23 Jun 19:00:41 19:03:12 16° 64° (ENE) 19:05:45 437.475
STARS 23 Jun 19:02:22 19:06:49 73° 103° (ESE) 19:11:14 437.465
CUTE-I 23 Jun 19:05:43 19:11:02 89° 76° (ENE) 19:16:25 437.470
XW-2C 23 Jun 19:13:32 19:17:19 58° 260° (W) 19:21:06 145.795 - 145.815
UWE-3 23 Jun 19:28:48 19:30:05 11° 59° (ENE) 19:31:21 435.000/436.395/437.385
KAITUO 1B 23 Jun 19:33:24 19:37:00 42° 262° (W) 19:40:37 145.475/437.950
AAUSAT CUBESAT 2 23 Jun 19:45:30 19:47:39 14° 64° (ENE) 19:49:48 437.432
XW-2A 23 Jun 20:02:31 20:05:50 49° 75° (ENE) 20:09:12 145.665 - 145.685
KKS-1 23 Jun 20:04:47 20:06:48 13° 299° (WNW) 20:08:50 437.445
STRAND 1 23 Jun 20:07:54 20:11:47 21° 93° (E) 20:15:38 437.568
NUDT-PHONESAT 23 Jun 20:13:55 20:16:08 15° 268° (W) 20:18:21 437.300
RS-15 23 Jun 20:18:36 20:25:53 19° 96° (E) 20:33:14 29.354- 29.394
SEEDS 23 Jun 20:21:04 20:25:15 73° 76° (ENE) 20:29:27 437.485
CUBEBUG 2 23 Jun 20:23:04 20:27:33 61° 74° (ENE) 20:32:11 437.445
AO-73 23 Jun 20:28:25 20:31:57 23° 66° (ENE) 20:35:32 145.935
CUTE 1.7 + AOD 2 23 Jun 20:34:30 20:38:38 50° 261° (W) 20:42:47 437.475
HO-68 23 Jun 20:36:10 20:43:15 60° 258° (WSW) 20:50:23 435.675
STARS 23 Jun 20:40:43 20:42:33 12° 299° (WNW) 20:44:22 437.465
CUTE-I 23 Jun 20:50:10 20:51:47 11° 272° (W) 20:53:25 437.470
PCSat 23 Jun 20:53:23 20:56:39 16° 39° (NE) 20:59:56 145.827
Oscar 11 23 Jun 20:57:47 21:01:41 33° 70° (ENE) 21:05:36 .
ZACube-1 23 Jun 21:01:06 21:05:30 53° 73° (ENE) 21:09:59 437.345
UWE-3 23 Jun 21:01:12 21:05:45 88° 257° (WSW) 21:10:27 435.000/436.395/437.385
YUBILEINY 23 Jun 21:11:24 21:13:55 11° 72° (ENE) 21:16:25 435.215
AAUSAT CUBESAT 2 23 Jun 21:18:38 21:22:40 53° 260° (W) 21:26:42 437.432
BEESAT 3 23 Jun 21:24:04 21:26:01 13° 109° (ESE) 21:27:59 437.485
EO-88 23 Jun 21:27:41 21:28:37 11° 63° (ENE) 21:29:34 145.990 - 145.960
DELFI C3 23 Jun 21:30:23 21:33:09 19° 67° (ENE) 21:35:55 145.870
AO-85 23 Jun 21:45:18 21:49:09 42° 118° (ESE) 21:52:53 145.980
STRAND 1 23 Jun 21:46:15 21:51:11 48° 290° (WNW) 21:56:07 437.568
CUBEBUG 2 23 Jun 22:02:13 22:04:36 14° 271° (W) 22:07:00 437.445
AO-73 23 Jun 22:03:45 22:07:57 37° 263° (W) 22:12:13 145.935
BEESAT 2 23 Jun 22:17:26 22:20:07 18° 111° (ESE) 22:22:51 435.950
RS-15 23 Jun 22:24:05 22:36:09 75° 118° (ESE) 22:48:30 29.354- 29.394
Oscar 11 23 Jun 22:34:28 22:37:52 22° 266° (W) 22:41:18 .
PCSat 23 Jun 22:35:30 22:40:57 79° 59° (ENE) 22:46:22 145.827
TIGRISAT 23 Jun 22:36:30 22:39:20 16° 90° (E) 22:42:07 435.000
ZACube-1 23 Jun 22:39:21 22:42:06 16° 270° (W) 22:44:52 437.345
O/OREOS (USA 219) 23 Jun 22:50:14 22:54:43 61° 109° (ESE) 22:59:11 437.305
EO-88 23 Jun 22:58:13 23:01:49 56° 259° (W) 23:05:27 145.990 - 145.960
M-CUBED/EXP-1 PRIME 23 Jun 22:58:47 23:02:14 38° 105° (ESE) 23:05:56 437.505
BEESAT 3 23 Jun 22:59:11 23:03:06 57° 306° (NW) 23:07:05 437.485
ESTCUBE 1 23 Jun 22:59:44 23:02:13 15° 62° (ENE) 23:04:42 437.505/2401.250
YUBILEINY 23 Jun 23:00:11 23:08:49 65° 92° (E) 23:17:31 435.215
SO-50 23 Jun 23:00:32 23:03:25 16° 38° (NE) 23:06:18 436.795
DELFI C3 23 Jun 23:04:08 23:07:41 33° 263° (W) 23:11:16 145.870
PRISM 23 Jun 23:04:12 23:07:49 30° 97° (E) 23:11:26 437.425
FO-29 23 Jun 23:05:11 23:12:50 55° 99° (E) 23:20:26 435.910
UNISAT 6 23 Jun 23:16:46 23:21:16 44° 99° (E) 23:25:38 437.425
NO-84 23 Jun 23:24:08 23:28:02 63° 135° (SE) 23:32:14 435.350 FM
AO-85 23 Jun 23:26:39 23:29:42 20° 316° (NW) 23:32:41 145.980
LO-87 23 Jun 23:27:40 23:30:58 37° 72° (ENE) 23:34:18 145.935 - 145.965
SPROUT 23 Jun 23:47:09 23:48:27 11° 61° (ENE) 23:49:45 437.525
BEESAT 2 23 Jun 23:53:44 23:57:32 43° 309° (NW) 00:01:25 435.950
TIGRISAT 24 Jun 00:11:47 00:16:20 54° 288° (WNW) 00:20:48 435.000
PCSat 24 Jun 00:20:47 00:23:38 15° 257° (WSW) 00:26:28 145.827
POLYITAN 1 24 Jun 00:29:37 00:32:18 16° 92° (E) 00:34:57 437.675
O/OREOS (USA 219) 24 Jun 00:31:41 00:34:32 16° 308° (NW) 00:37:22 437.305
AIST 2D 24 Jun 00:32:07 00:35:20 33° 97° (E) 00:38:30 435.315
ESTCUBE 1 24 Jun 00:34:04 00:38:31 61° 259° (W) 00:42:59 437.505/2401.250
M-CUBED/EXP-1 PRIME 24 Jun 00:34:07 00:36:28 17° 298° (WNW) 00:38:55 437.505
RS-15 24 Jun 00:38:23 00:49:48 42° 323° (NW) 01:01:20 29.354- 29.394
PRISM 24 Jun 00:39:43 00:42:57 23° 293° (WNW) 00:46:11 437.425
QB50P2 24 Jun 00:39:44 00:43:09 23° 94° (E) 00:46:31 145.880/145.840
SO-50 24 Jun 00:39:55 00:44:27 82° 238° (WSW) 00:48:59 436.795
VELOX 1 24 Jun 00:44:15 00:48:21 42° 71° (ENE) 00:52:30 145.980
FO-29 24 Jun 00:50:38 00:57:29 36° 297° (WNW) 01:04:23 435.910
UNISAT 6 24 Jun 00:54:13 00:57:38 20° 295° (WNW) 01:00:59 437.425
YUBILEINY 24 Jun 00:58:53 01:06:15 29° 293° (WNW) 01:13:43 435.215
NO-84 24 Jun 01:02:20 01:05:57 28° 335° (NNW) 01:09:42 435.350 FM
LO-87 24 Jun 01:02:53 01:04:34 13° 268° (W) 01:06:18 145.935 - 145.965
50 SAT 24 Jun 01:04:21 01:07:13 27° 70° (ENE) 01:10:07 437.505
EO-79 24 Jun 01:04:30 01:08:31 38° 98° (E) 01:12:29 145.935-145.965
DX 1 24 Jun 01:10:30 01:14:09 27° 67° (ENE) 01:17:49 434.975-435.025
SPROUT 24 Jun 01:19:29 01:23:44 75° 258° (WSW) 01:28:01 437.525
DUCHIFAT 1 24 Jun 01:20:44 01:24:51 46° 99° (E) 01:28:55 145.980
NANOSAT C BR1 24 Jun 01:28:07 01:32:23 64° 102° (ESE) 01:36:35 145.865
UKube-1 24 Jun 01:31:21 01:35:07 31° 68° (ENE) 01:38:55 .
